This demonstration page uses our WeatherBlox Daily Observations layout. Learn more.

Left ArrowRight Arrow

Hourly Observations for May 25, 2021

Temp ( °F °C ) Dew Point ( °F °C ) Humidity (%) Winds ( mph kmh ) Pressure ( in mb ) Visibility ( mi km ) Precip ( " mm )
12:15 am 00:15 Cloudy 52 11 52 11 100 100 ESE 6 9 30.31 1027 10 16 0.00 0.00
12:35 am 00:35 Cloudy 52 11 52 11 100 100 Calm 30.31 1027 10 16 0.00 0.00
12:55 am 00:55 Cloudy 52 11 52 11 100 100 Calm 30.31 1027 10 16 0.00 0.00
1:15 am 01:15 Cloudy 52 11 52 11 100 100 ESE 5 7 30.31 1027 10 16 0.00 0.00
1:35 am 01:35 Cloudy 52 11 52 11 100 100 E 3 6 30.30 1026 10 16 0.00 0.00
1:55 am 01:55 Cloudy 52 11 52 11 100 100 Calm 30.30 1026 10 16 0.00 0.00
2:15 am 02:15 Cloudy 52 11 52 11 100 100 E 3 6 30.30 1026 10 16 0.00 0.00
2:35 am 02:35 Cloudy 52 11 52 11 100 100 ESE 3 6 30.29 1026 10 16 0.00 0.00
2:55 am 02:55 Cloudy 50 10 50 10 100 100 ESE 5 7 30.30 1026 10 16 0.00 0.00
3:15 am 03:15 Cloudy 50 10 50 10 100 100 ESE 3 6 30.29 1026 10 16 0.00 0.00
3:35 am 03:35 Cloudy 50 10 50 10 100 100 Calm 30.29 1026 10 16 0.00 0.00
3:55 am 03:55 Cloudy 50 10 50 10 100 100 Calm 30.29 1026 10 16 0.00 0.00
7:15 am 07:15 Cloudy 52 11 50 10 94 94 SSE 5 7 30.30 1026 10 16 0.00 0.00
7:35 am 07:35 Cloudy 52 11 50 10 94 94 SSE 6 9 30.30 1026 10 16 0.00 0.00
7:55 am 07:55 Cloudy 54 12 50 10 88 88 SSE 6 9 30.30 1026 10 16 0.00 0.00
8:15 am 08:15 Cloudy 54 12 50 10 88 88 SSE 6 9 30.30 1026 10 16 0.00 0.00
8:35 am 08:35 Cloudy 54 12 50 10 88 88 SSE 6 9 30.30 1026 10 16 0.00 0.00
8:55 am 08:55 Cloudy 54 12 52 11 94 94 S 8 13 30.30 1026 10 16 0.00 0.00
9:35 am 09:35 Cloudy 55 13 52 11 88 88 S 8 13 30.30 1026 10 16 0.00 0.00
9:55 am 09:55 Cloudy 57 14 52 11 82 82 S 6 9 30.30 1026 10 16 0.00 0.00
10:15 am 10:15 Cloudy 59 15 52 11 77 77 S 9 15 30.30 1026 10 16 0.00 0.00
10:35 am 10:35 Cloudy 59 15 54 12 82 82 S 7 11 30.29 1026 10 16 0.00 0.00
10:55 am 10:55 Cloudy 59 15 54 12 82 82 SSE 5 7 30.29 1026 10 16 0.00 0.00
11:15 am 11:15 Cloudy 61 16 54 12 77 77 SSW 7 11 30.29 1026 10 16 0.00 0.00
11:35 am 11:35 Cloudy 61 16 54 12 77 77 S 7 11 30.28 1025 10 16 0.00 0.00
11:55 am 11:55 Cloudy 63 17 55 13 77 77 S 7 11 30.28 1025 10 16 0.00 0.00
12:15 pm 12:15 Cloudy 64 18 55 13 73 73 SSW 7 11 30.27 1025 10 16 0.00 0.00
12:35 pm 12:35 Cloudy 64 18 55 13 73 73 S 7 11 30.26 1025 10 16 0.00 0.00
12:55 pm 12:55 Mostly Cloudy 68 20 59 15 73 73 SW 8 13 30.25 1024 10 16 0.00 0.00
1:15 pm 13:15 Mostly Cloudy 68 20 57 14 69 69 S 5 7 30.25 1024 10 16 0.00 0.00
1:35 pm 13:35 Partly Cloudy 70 21 59 15 69 69 S 8 13 30.24 1024 10 16 0.00 0.00
1:55 pm 13:55 Partly Cloudy 72 22 59 15 65 65 SSW 9 15 30.23 1024 10 16 0.00 0.00
2:15 pm 14:15 Sunny 72 22 61 16 69 69 SW 9 15 30.22 1023 10 16 0.00 0.00
2:35 pm 14:35 Sunny 73 23 61 16 65 65 SSW 12 19 30.22 1023 10 16 0.00 0.00
2:55 pm 14:55 Sunny 73 23 61 16 65 65 SSW 12 19 30.20 1023 10 16 0.00 0.00
3:15 pm 15:15 Sunny 75 24 63 17 65 65 SSE 7 11 30.19 1022 10 16 0.00 0.00
3:35 pm 15:35 Sunny 73 23 61 16 65 65 S 14 22 30.18 1022 10 16 0.00 0.00
3:55 pm 15:55 Sunny 77 25 63 17 61 61 SSW 10 17 30.16 1021 10 16 0.00 0.00
4:15 pm 16:15 Sunny 77 25 63 17 61 61 SSE 8 13 30.16 1021 10 16 0.00 0.00
4:35 pm 16:35 Sunny 77 25 63 17 61 61 S 10 17 30.15 1021 10 16 0.00 0.00
4:55 pm 16:55 Sunny 79 26 63 17 58 58 S 9 15 30.14 1021 10 16 0.00 0.00
5:15 pm 17:15 Sunny 79 26 63 17 58 58 S 13 20 30.14 1021 10 16 0.00 0.00
5:35 pm 17:35 Sunny 79 26 64 18 61 61 S 10 17 30.13 1020 10 16 0.00 0.00
5:55 pm 17:55 Sunny 79 26 64 18 61 61 SSW 10 17 30.13 1020 10 16 0.00 0.00
6:15 pm 18:15 Sunny 79 26 64 18 61 61 S 12 19 30.13 1020 10 16 0.00 0.00
6:35 pm 18:35 Sunny 79 26 64 18 61 61 S 9 15 30.12 1020 10 16 0.00 0.00
6:55 pm 18:55 Sunny 79 26 64 18 61 61 S 13 20 30.12 1020 10 16 0.00 0.00
7:15 pm 19:15 Sunny 77 25 64 18 65 65 S 10 17 30.12 1020 10 16 0.00 0.00
7:35 pm 19:35 Sunny 77 25 64 18 65 65 S 9 15 30.12 1020 10 16 0.00 0.00
7:55 pm 19:55 Sunny 75 24 64 18 69 69 S 9 15 30.14 1021 10 16 0.00 0.00
8:15 pm 20:15 Sunny 73 23 64 18 74 74 S 10 17 30.14 1021 10 16 0.00 0.00
8:35 pm 20:35 Clear 73 23 64 18 74 74 S 10 17 30.14 1021 10 16 0.00 0.00
8:55 pm 20:55 Clear 72 22 64 18 78 78 S 9 15 30.14 1021 10 16 0.00 0.00
9:15 pm 21:15 Clear 72 22 64 18 78 78 S 7 11 30.15 1021 10 16 0.00 0.00
9:35 pm 21:35 Clear 72 22 64 18 78 78 S 7 11 30.15 1021 10 16 0.00 0.00
9:55 pm 21:55 Clear 72 22 64 18 78 78 S 8 13 30.15 1021 10 16 0.00 0.00
10:15 pm 22:15 Clear 70 21 64 18 83 83 S 6 9 30.16 1021 10 16 0.00 0.00
10:35 pm 22:35 Clear 68 20 64 18 88 88 S 7 11 30.16 1021 10 16 0.00 0.00
10:55 pm 22:55 Clear 70 21 64 18 83 83 S 8 13 30.15 1021 10 16 0.00 0.00
11:15 pm 23:15 Clear 68 20 64 18 88 88 SSE 6 9 30.15 1021 10 16 0.00 0.00
11:35 pm 23:35 Partly Cloudy 68 20 63 17 83 83 S 3 6 30.15 1021 10 16 0.00 0.00
11:55 pm 23:55 Partly Cloudy 66 19 63 17 88 88 S 5 7 30.15 1021 10 16 0.00 0.00

Powered by AerisWeather